Weather History for Milwaukee, WI

Change the Weather History Date:

Sunday, November 24, 2013

  Actual Average Record
Temperature  
Mean Temperature 19 °F 35 °F  
Max Temperature 26 °F 42 °F 65 °F (1931)
Min Temperature 11 °F 28 °F -5 °F (1950)
Degree Days  
Heating Degree Days 46 30  
Month to date heating degree days 604 590  
Since 1 July heating degree days 1144 1175  
Cooling Degree Days 0 0  
Month to date cooling degree days 0 0  
Year to date cooling degree days 688 641  
Moisture  
Dew Point 3 °F    
Average Humidity 53    
Maximum Humidity 73    
Minimum Humidity 32    
Precipitation  
Precipitation 0.00 in 0.09 in 0.53 in (1973)
Month to date precipitation 2.95 2.19  
Year to date precipitation 38.21 32.20  
Snow  
Snow 0.00 in 0.10 in 2.70 in (1949)
Month to date snowfall 1.2 1.4  
Since 1 July snowfall 1.2 1.7  
Since 1 September snowfall 1.2 1.7  
Snow Depth 0.00 in    
Sea Level Pressure  
Sea Level Pressure 30.56 in    
Wind  
Wind Speed 12 mph (WSW)    
Max Wind Speed 28 mph    
Max Gust Speed 37 mph    
Visibility 10 miles    
Events      
T = Trace of Precipitation, MM = Missing Value Source: NWS Daily Summary

Daily Weather History Graph

Daily Weather History Graph

Search for Another Location

Airport:

Trip Planner

Search our weather history database for the weather conditions in past years. The results will help you decide how hot, cold, wet, or windy it might be!

Date:

Astronomy

Nov. 24, 2013 Rise Set
Actual Time 6:55 AM CST 4:21 PM CST
Civil Twilight 6:24 AM CST 4:52 PM CST
Nautical Twilight 5:49 AM CST 5:27 PM CST
Astronomical Twilight 5:15 AM CST 6:01 PM CST
Moon 10:51 PM CST (11/24) 11:38 AM CST (11/24)
Length of Visible Light 10h 28m
Length of Day
9h 25m
Waning Gibbous, 60% of the Moon is Illuminated
Nov 24
Waning Gibbous
Nov 25
Last Quarter
Dec 2
New
Dec 9
First Quarter
Dec 17
Full

Hourly Weather History & Observations

Time (CST) Temp. Windchill Dew Point Humidity Pressure Visibility Wind Dir Wind Speed Gust Speed Precip Events Conditions
12:52 AM 12.9 °F -1.6 °F 1.9 °F 62% 30.70 in 10.0 mi NW 12.7 mph - N/A   Clear
1:52 AM 12.9 °F -0.2 °F 1.0 °F 59% 30.70 in 10.0 mi WNW 10.4 mph - N/A   Clear
2:52 AM 12.0 °F -1.3 °F 1.0 °F 61% 30.69 in 10.0 mi WNW 10.4 mph - N/A   Clear
3:52 AM 12.0 °F 0.5 °F 1.9 °F 64% 30.69 in 10.0 mi West 8.1 mph - N/A   Clear
4:52 AM 12.0 °F -0.4 °F 1.9 °F 64% 30.69 in 10.0 mi West 9.2 mph - N/A   Clear
5:52 AM 10.9 °F 0.2 °F 3.0 °F 70% 30.69 in 10.0 mi West 6.9 mph - N/A   Partly Cloudy
6:52 AM 10.9 °F -1.8 °F 3.0 °F 70% 30.70 in 10.0 mi WNW 9.2 mph - N/A   Partly Cloudy
7:52 AM 12.9 °F 1.6 °F 3.9 °F 67% 30.71 in 10.0 mi WNW 8.1 mph - N/A   Partly Cloudy
8:52 AM 15.1 °F 4.2 °F 1.9 °F 56% 30.71 in 10.0 mi WNW 8.1 mph - N/A   Partly Cloudy
9:52 AM 17.1 °F 4.3 °F 1.9 °F 52% 30.71 in 10.0 mi West 11.5 mph - N/A   Partly Cloudy
10:52 AM 19.9 °F 11.1 °F 1.0 °F 44% 30.68 in 10.0 mi WSW 6.9 mph - N/A   Clear
11:52 AM 21.9 °F 12.5 °F -0.9 °F 37% 30.63 in 10.0 mi West 8.1 mph - N/A   Partly Cloudy
12:52 PM 24.1 °F 13.7 °F 1.0 °F 37% 30.59 in 10.0 mi SW 10.4 mph - N/A   Partly Cloudy
1:52 PM 25.0 °F 13.6 °F 1.0 °F 36% 30.56 in 10.0 mi SSW 12.7 mph 17.3 mph N/A   Partly Cloudy
2:52 PM 26.1 °F 15.6 °F -0.9 °F 31% 30.53 in 10.0 mi SW 11.5 mph - N/A   Partly Cloudy
3:52 PM 26.1 °F 16.2 °F 1.0 °F 34% 30.51 in 10.0 mi SW 10.4 mph - N/A   Partly Cloudy
4:52 PM 24.1 °F 14.4 °F 3.9 °F 42% 30.48 in 10.0 mi SSW 9.2 mph - N/A   Partly Cloudy
5:52 PM 23.0 °F 11.7 °F 6.1 °F 48% 30.48 in 10.0 mi SSW 11.5 mph - N/A   Clear
6:52 PM 23.0 °F 11.7 °F 6.1 °F 48% 30.44 in 10.0 mi SSW 11.5 mph - N/A   Clear
7:52 PM 21.9 °F 9.2 °F 6.1 °F 51% 30.41 in 10.0 mi SSW 13.8 mph - N/A   Clear
8:52 PM 23.0 °F 8.3 °F 5.0 °F 46% 30.37 in 10.0 mi SW 19.6 mph 27.6 mph N/A   Clear
9:52 PM 23.0 °F 7.2 °F 3.0 °F 42% 30.33 in 10.0 mi SW 23.0 mph 32.2 mph N/A   Clear
10:52 PM 23.0 °F 9.6 °F 5.0 °F 46% 30.33 in 10.0 mi SW 16.1 mph 26.5 mph N/A   Clear
11:52 PM 24.1 °F 9.4 °F 3.0 °F 40% 30.32 in 10.0 mi SW 20.7 mph 27.6 mph N/A   Partly Cloudy